Starlink 31331

operational
NORAD ID: 58946 Int'l Des: 2024-027 Owner: SPXS Country: US Constellation: starlink
LEOCIRCULAR

Starlink 31331について

説明を読み込み中...

リアルタイム位置

3D地球を読み込み中...

次回通過

高度履歴

Altitude vs Time

uPlot chart will show altitude changes over time

軌道要素

1 58946U 24027R 25306.36403341 .00000537 00000-0 30284-4 0 9993
2 58946 53.1590 181.0749 0001275 78.4991 281.6153 15.30168590 97831
Epoch: Nov 2, 2025 • Age: 25 hours

現在のステータス

高度 486.7 km
速度 7.62 km/s
衛星直下点 -34.39°S, 41.66°W
打ち上げ日 Feb 10, 2024
運用期間 1.7 years
タイプ internet

技術仕様

分類 Payload
質量 730.00 kg
乾燥質量 700.00 kg
総質量 730.00 kg
長さ 0.30 m
直径 4.10 m
スパン 29.00 m
形状 Box + pan
製造者 SPXS
バスタイプ Starlink V2M
フェーズステータス In Orbit
所有者/国 SPXS/US

大規模コンステレーション

Loading constellations...